Change the Weather History Date:

Sunday, March 31, 2013

  Actual Average Record
Temperature  
Mean Temperature 52 °F 48 °F  
Max Temperature 58 °F 56 °F 80 °F (1966)
Min Temperature 45 °F 40 °F 26 °F (1971)
Degree Days  
Heating Degree Days 13 17  
Month to date heating degree days 305 570  
Since 1 July heating degree days 2669 3329  
Cooling Degree Days 0 0  
Month to date cooling degree days 11 1  
Year to date cooling degree days 11 1  
Growing Degree Days 1 (Base 50)    
Moisture  
Dew Point 42 °F    
Average Humidity 68    
Maximum Humidity 93    
Minimum Humidity 42    
Precipitation  
Precipitation 0.01 in 0.04 in 0.96 in (1964)
Month to date precipitation 0.66 1.73  
Year to date precipitation 2.52 7.38  
Since 1 July precipitation 3.89 11.23  
Sea Level Pressure  
Sea Level Pressure 30.04 in    
Wind  
Wind Speed 10 mph (SSW)    
Max Wind Speed 23 mph    
Max Gust Speed 28 mph    
Visibility 5 miles    
Events Fog , Rain    
T = Trace of Precipitation, MM = Missing Value Source: NWS Daily Summary

Daily Weather History Graph

Daily Weather History Graph

Search for Another Location

Airport or City:

Trip Planner

Search our weather history database for the weather conditions in past years. The results will help you decide how hot, cold, wet, or windy it might be!

Date:

Astronomy

Mar. 31, 2013 Rise Set
Actual Time 6:42 AM PDT 7:15 PM PDT
Civil Twilight 6:17 AM PDT 7:40 PM PDT
Nautical Twilight 5:47 AM PDT 8:10 PM PDT
Astronomical Twilight 5:17 AM PDT 8:41 PM PDT
Moon No Moon Rise 9:45 AM PDT
Length of Visible Light 13h 23m
Length of Day
12h 32m
Waning Gibbous, 76% of the Moon is Illuminated
Mar 31
Waning Gibbous
Apr 2
Last Quarter
Apr 10
New
Apr 18
First Quarter
Apr 25
Full

Hourly Weather History & Observations

Time (PDT) Temp. Windchill Dew Point Humidity Pressure Visibility Wind Dir Wind Speed Gust Speed Precip Events Conditions
12:48 AM 50.0 °F - 28.9 °F 44% 30.01 in 10.0 mi South 11.5 mph - N/A   Scattered Clouds
1:48 AM 51.1 °F - 34.0 °F 52% 29.99 in 10.0 mi SSW 8.1 mph - N/A   Overcast
2:48 AM 48.0 °F - 30.9 °F 52% 29.99 in 10.0 mi SSW 5.8 mph - N/A   Overcast
3:48 AM 48.0 °F - 32.0 °F 54% 29.99 in 10.0 mi SSW 4.6 mph - N/A   Overcast
4:48 AM 45.0 °F 42.6 °F 32.0 °F 60% 29.99 in 10.0 mi SSW 4.6 mph - N/A   Scattered Clouds
5:48 AM 46.0 °F 43.1 °F 34.0 °F 63% 30.00 in 10.0 mi SW 5.8 mph - N/A   Scattered Clouds
6:48 AM 45.0 °F 41.8 °F 35.1 °F 68% 30.03 in 10.0 mi West 5.8 mph - N/A   Clear
7:48 AM 48.0 °F - 39.0 °F 71% 30.04 in 10.0 mi NNW 4.6 mph - N/A   Clear
8:48 AM 50.0 °F - 39.9 °F 68% 30.04 in 10.0 mi Variable 4.6 mph - N/A   Mostly Cloudy
9:48 AM 53.1 °F - 37.9 °F 57% 30.04 in 10.0 mi SW 6.9 mph - N/A   Overcast
10:42 AM 55.4 °F - 39.2 °F 54% 30.13 in 10.0 mi South 13.8 mph - N/A   Overcast
10:48 AM 55.9 °F - 39.0 °F 53% 30.04 in 10.0 mi South 12.7 mph - N/A   Overcast
11:15 AM 57.2 °F - 39.2 °F 51% 30.13 in 10.0 mi South 9.2 mph 17.3 mph N/A   Overcast
11:36 AM 55.4 °F - 41.0 °F 58% 30.13 in 10.0 mi SE 15.0 mph 20.7 mph N/A   Overcast
11:48 AM 57.9 °F - 41.0 °F 53% 30.04 in 10.0 mi SSE 12.7 mph 19.6 mph N/A   Overcast
12:48 PM 55.9 °F - 42.1 °F 60% 30.04 in 10.0 mi SSW 13.8 mph - N/A   Overcast
12:55 PM 53.6 °F - 42.8 °F 67% 30.12 in 10.0 mi South 13.8 mph 21.9 mph N/A   Overcast
1:16 PM 51.8 °F - 44.6 °F 76% 30.12 in 10.0 mi SSW 13.8 mph 23.0 mph 0.00 in Rain Light Rain
1:48 PM 51.1 °F - 46.0 °F 83% 30.03 in 1.0 mi South 13.8 mph 19.6 mph 0.01 in Rain Light Rain
1:52 PM 50.0 °F - 46.4 °F 87% 30.10 in 0.5 mi South 15.0 mph - 0.00 in Fog , Rain Light Rain
1:56 PM 50.0 °F - 46.4 °F 87% 30.10 in 0.2 mi South 15.0 mph - 0.00 in Fog , Rain Light Rain
2:10 PM 50.0 °F - 46.4 °F 87% 30.10 in 0.2 mi South 16.1 mph 23.0 mph 0.00 in Fog , Rain Light Rain
2:48 PM 50.0 °F - 46.0 °F 86% 30.01 in 1.0 mi South 16.1 mph 21.9 mph 0.00 in   Mist
2:55 PM 50.0 °F - 46.4 °F 87% 30.08 in 1.2 mi South 18.4 mph - N/A   Overcast
3:00 PM 50.0 °F - 46.4 °F 87% 30.08 in 0.5 mi South 18.4 mph - N/A Fog Fog
3:10 PM 51.8 °F - 46.4 °F 82% 30.08 in 2.5 mi South 16.1 mph 23.0 mph N/A   Haze
3:14 PM 51.8 °F - 46.4 °F 82% 30.07 in 10.0 mi South 16.1 mph 23.0 mph N/A   Overcast
3:48 PM 52.0 °F - 45.0 °F 77% 29.99 in 10.0 mi South 20.7 mph 26.5 mph N/A   Overcast
4:41 PM 50.0 °F - 44.6 °F 82% 30.06 in 1.8 mi SSW 16.1 mph - N/A   Haze
4:46 PM 50.0 °F - 44.6 °F 82% 30.06 in 0.5 mi SSW 17.3 mph 25.3 mph N/A   Haze
4:48 PM 50.0 °F - 45.0 °F 83% 30.00 in 0.2 mi SSW 17.3 mph 25.3 mph N/A   Haze
4:59 PM 50.0 °F - 46.4 °F 87% 30.06 in 0.2 mi South 16.1 mph 23.0 mph N/A Fog Fog
5:48 PM 50.0 °F - 46.0 °F 86% 29.99 in 0.2 mi SSW 18.4 mph 25.3 mph N/A Fog Fog
5:56 PM 50.0 °F - 46.4 °F 87% 30.06 in 0.2 mi SSW 17.3 mph 25.3 mph 0.00 in Fog , Rain Light Rain
6:31 PM 48.2 °F - 46.4 °F 93% 30.06 in 0.2 mi SSW 15.0 mph - 0.00 in Fog Fog
6:48 PM 48.9 °F - 45.0 °F 86% 30.00 in 0.2 mi SSW 12.7 mph 18.4 mph 0.00 in Fog Fog
7:48 PM 48.0 °F - 44.1 °F 86% 30.00 in 0.2 mi South 12.7 mph - N/A Fog Fog
8:48 PM 46.9 °F - 44.1 °F 90% 30.01 in 0.2 mi SSW 9.2 mph - N/A Fog Fog
9:48 PM 46.9 °F - 43.0 °F 86% 30.02 in 0.2 mi SSW 9.2 mph - N/A Fog Fog
10:48 PM 46.9 °F - 43.0 °F 86% 30.02 in 0.2 mi SW 6.9 mph - N/A Fog Fog
11:48 PM 46.0 °F 43.1 °F 42.1 °F 86% 30.01 in 0.2 mi SSW 5.8 mph - N/A Fog Fog